• In Netherlands
  • List of Countries
  • For 7 days
  • Water Temperature
  • Satellite Maps
  • Weather Map
  • Weather Widgets
  • user-avatar
    Login

    Hourly Weather Giumri

    Today, 24 February, Friday

    Time Temperature Precipitation Wind Pressure Humidity
    00:00 -8°C° 0 mm 2 mps 631 mmHg 96%
    01:00 -8°C° 0 mm 2 mps 631 mmHg 96%
    02:00 -9°C° 0 mm 2 mps 631 mmHg 96%
    03:00 -9°C° 0 mm 2 mps 631 mmHg 97%
    04:00 -9°C° 0 mm 2 mps 631 mmHg 96%
    05:00 -10°C° 0 mm 2 mps 631 mmHg 96%
    06:00 -10°C° 0 mm 2 mps 631 mmHg 96%
    07:00 -8°C° 0 mm 2 mps 631 mmHg 95%
    08:00 -6°C° 0 mm 2 mps 632 mmHg 93%
    09:00 -4°C° 0 mm 2 mps 633 mmHg 92%
    10:00 -3°C° 0 mm 2 mps 634 mmHg 91%
    11:00 -1°C° 0 mm 2 mps 634 mmHg 90%
    12:00 +1°C° 0 mm 2 mps 634 mmHg 89%
    13:00 +2°C° 0 mm 2 mps 634 mmHg 90%
    14:00 +2°C° 0 mm 2 mps 634 mmHg 91%
    15:00 +3°C° 0 mm 1 mps 634 mmHg 92%
    16:00 0°C° 0 mm 1 mps 633 mmHg 94%
    17:00 -3°C° 0 mm 1 mps 632 mmHg 96%
    18:00 -6°C° 0 mm 1 mps 632 mmHg 98%
    19:00 -7°C° 0 mm 1 mps 632 mmHg 98%
    20:00 -8°C° 0 mm 1 mps 632 mmHg 98%
    21:00 -9°C° 0 mm 1 mps 632 mmHg 98%
    22:00 -9°C° 0 mm 1 mps 632 mmHg 97%
    23:00 -9°C° 0 mm 1 mps 632 mmHg 97%

    Tomorrow, 25 February, Saturday

    Time Temperature Precipitation Wind Pressure Humidity
    00:00 -10°C° 0 mm 1 mps 632 mmHg 97%
    01:00 -10°C° 0 mm 1 mps 632 mmHg 97%
    02:00 -10°C° 0 mm 1 mps 632 mmHg 97%
    03:00 -11°C° 0 mm 1 mps 632 mmHg 96%
    04:00 -11°C° 0 mm 1 mps 632 mmHg 96%
    05:00 -11°C° 0 mm 1 mps 632 mmHg 95%
    06:00 -11°C° 0 mm 1 mps 632 mmHg 95%
    07:00 -8°C° 0 mm 1 mps 633 mmHg 93%
    08:00 -3°C° 0 mm 1 mps 635 mmHg 90%
    09:00 0°C° 0 mm 1 mps 636 mmHg 88%
    10:00 +1°C° 0 mm 1 mps 636 mmHg 88%
    11:00 +3°C° 0 mm 1 mps 636 mmHg 89%
    12:00 +4°C° 0 mm 1 mps 635 mmHg 89%
    13:00 +4°C° 0 mm 1 mps 635 mmHg 90%
    14:00 +4°C° 0 mm 1 mps 635 mmHg 90%
    15:00 +4°C° 0 mm 1 mps 634 mmHg 91%
    16:00 0°C° 0 mm 1 mps 633 mmHg 93%
    17:00 -4°C° 0 mm 1 mps 631 mmHg 96%
    18:00 -9°C° 0 mm 1 mps 630 mmHg 98%
    19:00 -10°C° 0 mm 1 mps 630 mmHg 98%
    20:00 -10°C° 0 mm 1 mps 630 mmHg 97%
    21:00 -10°C° 0 mm 1 mps 630 mmHg 97%
    22:00 -10°C° 0 mm 1 mps 631 mmHg 96%
    23:00 -9°C° 0 mm 1 mps 631 mmHg 96%

    Day after tomorrow, 26 February, Sunday

    Time Temperature Precipitation Wind Pressure Humidity
    00:00 -8°C° 0 mm 1 mps 631 mmHg 95%
    01:00 -9°C° 0 mm 1 mps 631 mmHg 95%
    02:00 -10°C° 0 mm 2 mps 631 mmHg 95%
    03:00 -10°C° 0 mm 2 mps 631 mmHg 95%
    04:00 -10°C° 0 mm 2 mps 630 mmHg 95%
    05:00 -10°C° 0 mm 2 mps 630 mmHg 94%
    06:00 -10°C° 0 mm 2 mps 630 mmHg 94%
    07:00 -8°C° 0 mm 2 mps 631 mmHg 93%
    08:00 -5°C° 0 mm 2 mps 632 mmHg 91%
    09:00 -2°C° 0 mm 2 mps 633 mmHg 89%
    10:00 -1°C° 0 mm 2 mps 633 mmHg 90%
    11:00 +2°C° 0 mm 2 mps 633 mmHg 90%
    12:00 +3°C° 0 mm 2 mps 633 mmHg 91%
    13:00 +3°C° 0 mm 2 mps 633 mmHg 91%
    14:00 +4°C° 0 mm 1 mps 632 mmHg 92%
    15:00 +5°C° 0 mm 1 mps 632 mmHg 92%
    16:00 +3°C° 0 mm 1 mps 632 mmHg 93%
    17:00 +1°C° 0 mm 1 mps 632 mmHg 94%
    18:00 0°C° 0 mm 1 mps 631 mmHg 95%
    19:00 -2°C° 0 mm 1 mps 631 mmHg 95%
    20:00 -3°C° 0 mm 1 mps 631 mmHg 96%
    21:00 -6°C° 0 mm 1 mps 631 mmHg 97%
    22:00 -6°C° 0 mm 1 mps 630 mmHg 97%
    23:00 -7°C° 0 mm 1 mps 630 mmHg 97%

    27 February, Monday

    Time Temperature Precipitation Wind Pressure Humidity
    00:00 -7°C° 0 mm 1 mps 630 mmHg 97%
    01:00 -8°C° 0 mm 1 mps 630 mmHg 97%
    02:00 -9°C° 0 mm 1 mps 629 mmHg 97%
    03:00 -10°C° 0 mm 1 mps 629 mmHg 97%
    04:00 -11°C° 0 mm 1 mps 629 mmHg 97%
    05:00 -11°C° 0 mm 0 mps 629 mmHg 97%
    06:00 -11°C° 0 mm 0 mps 629 mmHg 97%
    07:00 -7°C° 0 mm 0 mps 631 mmHg 96%
    08:00 -4°C° 0 mm 0 mps 633 mmHg 94%
    09:00 +1°C° 0 mm 1 mps 635 mmHg 92%
    10:00 +2°C° 0 mm 1 mps 635 mmHg 93%
    11:00 +3°C° 0 mm 1 mps 635 mmHg 94%
    12:00 +4°C° 0 mm 1 mps 634 mmHg 94%
    13:00 +4°C° 0.1 mm 1 mps 634 mmHg 95%
    14:00 +4°C° 0.1 mm 1 mps 634 mmHg 95%
    15:00 +4°C° 0.1 mm 1 mps 633 mmHg 96%
    16:00 +3°C° 0.1 mm 1 mps 633 mmHg 97%
    17:00 +1°C° 0.1 mm 1 mps 632 mmHg 98%
    18:00 0°C° 0.1 mm 1 mps 632 mmHg 99%
    19:00 0°C° 0.2 mm 1 mps 632 mmHg 98%
    20:00 0°C° 0.2 mm 1 mps 632 mmHg 97%
    21:00 0°C° 0.2 mm 1 mps 633 mmHg 96%
    22:00 0°C° 0.2 mm 1 mps 633 mmHg 96%
    23:00 -1°C° 0.2 mm 1 mps 633 mmHg 96%

    28 February, Tuesday

    Time Temperature Precipitation Wind Pressure Humidity
    00:00 -1°C° 0.2 mm 1 mps 633 mmHg 96%
    01:00 -1°C° 0.2 mm 1 mps 632 mmHg 96%
    02:00 -2°C° 0.2 mm 1 mps 632 mmHg 96%
    03:00 -2°C° 0.2 mm 1 mps 632 mmHg 96%
    04:00 -2°C° 0.1 mm 1 mps 632 mmHg 97%
    05:00 -3°C° 0.1 mm 1 mps 632 mmHg 97%
    06:00 -4°C° 0.1 mm 1 mps 632 mmHg 97%
    07:00 -1°C° 0 mm 1 mps 633 mmHg 95%
    08:00 +1°C° 0 mm 1 mps 633 mmHg 94%
    09:00 +3°C° 0 mm 1 mps 634 mmHg 92%
    10:00 +3°C° 0 mm 1 mps 634 mmHg 92%
    11:00 +4°C° 0 mm 1 mps 634 mmHg 93%
    12:00 +5°C° 0 mm 1 mps 634 mmHg 93%
    13:00 +5°C° 0.1 mm 1 mps 634 mmHg 93%
    14:00 +5°C° 0.1 mm 1 mps 634 mmHg 93%
    15:00 +5°C° 0.1 mm 1 mps 633 mmHg 93%
    16:00 +3°C° 0.1 mm 1 mps 633 mmHg 95%
    17:00 +1°C° 0.1 mm 1 mps 632 mmHg 96%
    18:00 -1°C° 0.1 mm 1 mps 632 mmHg 98%
    19:00 -1°C° 0.1 mm 1 mps 632 mmHg 97%
    20:00 -2°C° 0.1 mm 1 mps 632 mmHg 97%
    21:00 -2°C° 0.1 mm 1 mps 633 mmHg 96%
    22:00 -2°C° 0.1 mm 1 mps 633 mmHg 96%
    23:00 -2°C° 0.1 mm 1 mps 633 mmHg 96%

    1 March, Wednesday

    Time Temperature Precipitation Wind Pressure Humidity
    00:00 -2°C° 0.1 mm 1 mps 633 mmHg 96%
    01:00 -3°C° 0.1 mm 1 mps 633 mmHg 96%
    02:00 -3°C° 0.1 mm 1 mps 632 mmHg 97%
    03:00 -4°C° 0.1 mm 1 mps 632 mmHg 97%
    04:00 -4°C° 0 mm 1 mps 632 mmHg 97%
    05:00 -4°C° 0 mm 1 mps 632 mmHg 96%
    06:00 -4°C° 0 mm 1 mps 632 mmHg 96%
    07:00 -2°C° 0 mm 1 mps 633 mmHg 95%
    08:00 0°C° 0 mm 1 mps 634 mmHg 93%
    09:00 +3°C° 0 mm 1 mps 635 mmHg 91%
    10:00 +3°C° 0 mm 1 mps 635 mmHg 91%
    11:00 +4°C° 0 mm 1 mps 634 mmHg 92%
    12:00 +5°C° 0 mm 1 mps 634 mmHg 92%
    13:00 +5°C° 0.1 mm 1 mps 634 mmHg 92%
    14:00 +5°C° 0.1 mm 1 mps 633 mmHg 92%
    15:00 +5°C° 0.1 mm 1 mps 633 mmHg 93%
    16:00 +3°C° 0 mm 1 mps 632 mmHg 94%
    17:00 +1°C° 0 mm 1 mps 631 mmHg 96%
    18:00 -1°C° 0 mm 1 mps 631 mmHg 97%
    19:00 -2°C° 0 mm 1 mps 631 mmHg 97%
    20:00 -3°C° 0 mm 1 mps 631 mmHg 97%
    21:00 -3°C° 0 mm 1 mps 631 mmHg 97%
    22:00 -3°C° 0 mm 1 mps 631 mmHg 96%
    23:00 -3°C° 0 mm 1 mps 630 mmHg 96%
    Show more